LRCK Weather Reports


Display with metric or nautical units.
time (UTC)temp
F
wind
direction
speed
MPH
gust
MPH
rain 1hr
in
rain 24hr
in
rain mn
in
humidity
%
barometer
mb
20260509153317 59 110 13.0 0.0 0.00 0.00 0.00 88 1015.0
20260509151818 59 110 14.0 0.0 0.00 0.00 0.00 88 1015.0
20260509150317 59 110 14.0 0.0 0.00 0.00 0.00 88 1015.0
20260509144817 61 90 13.0 0.0 0.00 0.00 0.00 83 1015.0
20260509143317 61 90 13.0 0.0 0.00 0.00 0.00 83 1015.0
20260509141814 63 90 14.0 0.0 0.00 0.00 0.00 77 1015.0
20260509140317 63 90 14.0 0.0 0.00 0.00 0.00 77 1015.0
20260509134817 63 90 11.0 0.0 0.00 0.00 0.00 83 1015.0
20260509133317 63 90 11.0 0.0 0.00 0.00 0.00 83 1015.0
20260509131814 61 90 11.0 0.0 0.00 0.00 0.00 83 1015.0
20260509130317 61 90 11.0 0.0 0.00 0.00 0.00 83 1015.0
20260509124818 59 80 10.0 0.0 0.00 0.00 0.00 88 1015.0
20260509123317 59 80 10.0 0.0 0.00 0.00 0.00 88 1015.0
20260509121811 61 110 9.0 0.0 0.00 0.00 0.00 88 1015.0
20260509120317 61 110 9.0 0.0 0.00 0.00 0.00 88 1015.0
20260509114817 61 100 7.0 0.0 0.00 0.00 0.00 83 1015.0
20260509113317 61 100 7.0 0.0 0.00 0.00 0.00 83 1015.0
20260509111818 61 80 7.0 0.0 0.00 0.00 0.00 83 1015.0
20260509110317 61 80 7.0 0.0 0.00 0.00 0.00 83 1015.0
20260509104816 59 90 9.0 0.0 0.00 0.00 0.00 88 1015.0
20260509103318 59 90 9.0 0.0 0.00 0.00 0.00 88 1015.0
20260509101818 59 100 9.0 0.0 0.00 0.00 0.00 88 1015.0
20260509100317 59 100 9.0 0.0 0.00 0.00 0.00 88 1015.0
20260509094817 61 110 9.0 0.0 0.00 0.00 0.00 83 1015.0
20260509093316 61 110 9.0 0.0 0.00 0.00 0.00 83 1015.0
20260509091943 63 100 7.0 0.0 0.00 0.00 0.00 77 1016.0
20260509090318 63 100 7.0 0.0 0.00 0.00 0.00 77 1016.0
20260509084817 63 120 7.0 0.0 0.00 0.00 0.00 83 1016.0
20260509083317 63 120 7.0 0.0 0.00 0.00 0.00 83 1016.0
20260509081849 61 100 6.0 0.0 0.00 0.00 0.00 88 1016.0
20260509080317 61 100 6.0 0.0 0.00 0.00 0.00 88 1016.0
20260509074817 59 110 7.0 0.0 0.00 0.00 0.00 94 1016.0
20260509073317 59 110 7.0 0.0 0.00 0.00 0.00 94 1016.0
20260509071817 61 80 6.0 0.0 0.00 0.00 0.00 83 1016.0
20260509070317 61 80 6.0 0.0 0.00 0.00 0.00 83 1016.0
20260509064817 61 80 7.0 0.0 0.00 0.00 0.00 83 1015.0
20260509063318 61 80 7.0 0.0 0.00 0.00 0.00 83 1015.0
20260509061817 59 80 7.0 0.0 0.00 0.00 0.00 94 1015.0
20260509060317 0 0.0 0.0 0.00 0.00 0.00
20260509053317 55 80 5.0 0.0 0.00 0.00 0.00 100 1015.0
20260509050317 55 90 5.0 0.0 0.00 0.00 0.00 100 1015.0
20260509043317 54 100 5.0 0.0 0.00 0.00 0.00 100 1015.0
20260509041817 54 120 5.0 0.0 0.00 0.00 0.00 100 1015.0
20260509040317 54 120 5.0 0.0 0.00 0.00 0.00 100 1015.0
20260509034817 54 120 6.0 0.0 0.00 0.00 0.00 100 1015.0
20260509033317 54 120 6.0 0.0 0.00 0.00 0.00 100 1015.0
20260509030317 52 100 7.0 0.0 0.00 0.00 0.00 100 1015.0
20260509024816 52 100 6.0 0.0 0.00 0.00 0.00 100 1015.0
20260509023317 52 100 6.0 0.0 0.00 0.00 0.00 100 1015.0
20260509020317 52 60 5.0 0.0 0.00 0.00 0.00 100 1015.0
20260509014817 52 80 3.0 0.0 0.00 0.00 0.00 100 1015.0
20260509013317 52 80 3.0 0.0 0.00 0.00 0.00 100 1015.0
20260509011817 52 100 5.0 0.0 0.00 0.00 0.00 100 1015.0
20260509010317 52 100 5.0 0.0 0.00 0.00 0.00 100 1015.0
20260509004817 52 130 3.0 0.0 0.00 0.00 0.00 100 1015.0
20260509003317 52 130 3.0 0.0 0.00 0.00 0.00 100 1015.0
20260509001814 52 2.0 0.0 0.00 0.00 0.00 100 1015.0
20260509000318 52 2.0 0.0 0.00 0.00 0.00 100 1015.0
20260508234817 52 2.0 0.0 0.00 0.00 0.00 100 1015.0
20260508233317 52 2.0 0.0 0.00 0.00 0.00 100 1015.0
20260508231817 52 130 5.0 0.0 0.00 0.00 0.00 100 1016.0
20260508230317 52 130 5.0 0.0 0.00 0.00 0.00 100 1016.0
20260508224817 52 120 6.0 0.0 0.00 0.00 0.00 100 1016.0
20260508223317 52 120 6.0 0.0 0.00 0.00 0.00 100 1016.0
20260508221817 52 110 7.0 0.0 0.00 0.00 0.00 100 1016.0
20260508220317 52 110 7.0 0.0 0.00 0.00 0.00 100 1016.0
20260508214816 52 110 8.0 0.0 0.00 0.00 0.00 100 1016.0
20260508213317 52 110 8.0 0.0 0.00 0.00 0.00 100 1016.0
20260508211817 52 110 7.0 0.0 0.00 0.00 0.00 100 1016.0
20260508210317 52 110 7.0 0.0 0.00 0.00 0.00 100 1016.0
20260508200317 52 120 8.0 0.0 0.00 0.00 0.00 100 1016.0
20260508193317 52 110 8.0 0.0 0.00 0.00 0.00 100 1016.0
20260508190317 52 110 10.0 0.0 0.00 0.00 0.00 100 1016.0
20260508184817 52 100 9.0 0.0 0.00 0.00 0.00 100 1015.0
20260508183317 52 100 9.0 0.0 0.00 0.00 0.00 100 1015.0
20260508181820 52 110 9.0 0.0 0.00 0.00 0.00 100 1015.0
20260508180317 52 110 9.0 0.0 0.00 0.00 0.00 100 1015.0
20260508173317 52 120 9.0 0.0 0.00 0.00 0.00 100 1015.0
20260508171817 54 110 9.0 0.0 0.00 0.00 0.00 94 1015.0
20260508170317 54 110 9.0 0.0 0.00 0.00 0.00 94 1015.0
20260508164817 54 120 10.0 0.0 0.00 0.00 0.00 94 1016.0
20260508163318 54 120 10.0 0.0 0.00 0.00 0.00 94 1016.0
20260508161817 54 140 10.0 0.0 0.00 0.00 0.00 94 1016.0
20260508160317 54 140 10.0 0.0 0.00 0.00 0.00 94 1016.0
20260508154818 55 100 10.0 0.0 0.00 0.00 0.00 88 1015.0